Wind_Speed
27 28 28 27 28 28 29 30 30 30 32 33 33 33 33 34 34 35 36 36 37 38 39 39 40 40 40 41 42 41 42 43 43 44 45 44 44 45 45 45 46 46 46 46
28 28 27 28 28 28 29 30 30 31 32 34 34 34 34 34 35 36 37 37 37 38 39 40 40 40 41 41 42 42 42 43 44 45 45 45 45 45 46 46 45 45 45 45
28 28 28 28 28 28 28 29 29 31 32 34 34 34 34 34 35 36 36 37 38 39 39 40 40 40 41 41 41 41 41 42 44 45 45 45 46 46 46 47 47 46 46 46
28 27 27 28 28 28 29 29 30 31 32 33 34 35 33 34 35 35 36 36 37 38 39 40 40 41 41 41 41 41 41 42 43 44 45 46 46 46 47 47 48 48 48 48
27 27 27 27 28 28 29 29 30 31 32 33 33 36 34 34 34 34 35 36 37 38 39 40 40 41 42 42 42 42 41 41 43 44 45 45 46 46 46 47 48 48 49 49
27 27 27 27 28 28 29 29 31 31 32 33 33 35 35 33 34 34 35 36 36 37 38 40 41 41 42 42 42 42 42 42 43 44 44 45 45 46 47 47 48 48 48 49
27 26 27 28 28 28 28 29 30 32 33 33 33 35 35 34 34 34 34 35 36 37 38 39 40 41 41 42 42 43 44 44 43 44 44 45 44 45 46 47 48 49 49 49
27 26 27 27 28 28 28 29 30 32 33 33 33 34 34 33 33 33 33 34 35 36 37 38 39 40 41 42 42 42 42 43 43 43 44 45 45 45 46 47 48 49 49 49
28 27 27 28 28 29 30 30 30 32 34 34 35 35 34 33 31 31 32 33 35 36 37 38 39 40 41 41 42 42 42 42 42 42 43 44 45 46 46 47 48 48 49 50
29 28 28 28 29 30 30 30 30 31 33 35 34 34 33 31 31 31 32 33 34 35 36 37 38 39 40 41 41 42 43 43 43 43 44 45 45 46 47 47 48 48 49 50
29 29 29 29 29 30 30 30 31 32 33 35 36 34 33 33 33 33 33 33 33 34 35 36 37 38 39 40 41 42 42 43 43 43 44 45 46 47 48 48 48 49 50 51
29 30 29 29 30 30 30 30 31 32 32 34 36 35 34 34 34 34 34 34 34 34 34 35 37 38 39 40 41 42 42 43 43 44 44 45 46 47 48 48 49 50 50 51
30 30 31 30 30 30 31 31 32 33 33 33 34 34 33 33 32 33 33 34 34 34 35 36 37 38 39 40 41 42 42 42 43 43 44 45 45 46 47 48 49 50 50 51
31 31 31 32 31 31 31 32 32 33 35 35 35 35 34 34 33 33 33 34 34 34 34 35 36 37 38 40 41 41 42 43 43 43 43 44 44 45 46 47 48 49 50 50
31 32 31 31 31 32 32 32 33 34 35 36 34 34 33 34 34 34 35 35 34 34 34 35 36 36 37 38 39 40 42 42 43 42 43 43 43 45 46 47 48 48 49 50
31 31 31 30 30 31 32 32 33 34 34 35 35 34 33 34 35 35 34 34 34 34 35 35 35 36 36 37 38 39 40 41 42 42 42 43 44 45 46 47 47 48 48 49
30 30 31 31 31 32 32 31 32 34 34 35 35 34 34 34 34 35 35 35 34 35 35 36 36 37 37 37 38 39 39 40 41 42 42 43 44 44 45 46 46 47 48 48
31 31 32 32 32 33 32 31 32 33 34 34 34 34 34 34 34 35 36 36 36 36 36 36 37 37 38 38 39 39 39 40 40 41 43 43 44 44 44 45 46 47 47 48
31 32 33 34 35 34 32 32 31 33 33 33 34 33 33 33 34 34 35 36 36 36 36 36 37 37 38 38 38 39 40 40 41 41 42 43 43 44 45 45 46 47 47 47
32 32 33 34 35 35 34 33 33 33 33 32 33 33 33 33 34 33 34 35 35 36 36 37 37 37 38 39 39 39 40 40 41 41 41 42 43 44 44 45 45 46 46 47
33 33 33 34 36 36 35 34 34 34 34 33 33 34 34 34 34 34 35 35 36 36 36 37 38 38 39 39 39 39 40 41 41 41 41 42 43 44 45 46 46 46 47 47
33 34 34 35 36 35 35 35 35 35 35 34 34 35 35 36 36 36 36 36 37 37 38 38 38 39 39 39 40 40 40 40 41 41 42 42 43 44 44 45 46 47 47 47
34 34 35 35 35 35 35 35 35 35 35 35 35 35 35 36 37 37 37 37 38 38 38 38 39 39 39 39 40 40 40 41 40 40 41 42 43 43 44 45 45 46 47 48
34 34 34 34 33 34 34 34 34 34 34 35 35 35 35 36 37 37 38 38 38 38 38 39 39 39 39 39 40 40 40 39 40 40 40 41 41 43 44 45 46 47 48 48
33 33 33 33 33 33 33 34 34 34 34 34 34 35 36 36 37 37 37 38 38 38 39 39 39 39 39 39 39 39 39 39 39 39 39 40 40 41 42 44 45 45 46 47
32 32 32 32 32 32 33 33 33 33 33 34 34 34 35 36 37 37 38 38 38 38 38 38 38 38 38 38 38 38 38 38 39 39 39 39 40 40 41 42 42 43 44 45
Wind_Direction
282 280 279 279 277 275 272 269 267 265 263 264 263 262 261 261 263 263 264 264 263 260 258 259 260 259 259 260 261 260 259 258 257 256 255 253 252 251 251 251 251 251 251 250
283 282 281 278 277 276 274 271 269 268 266 266 265 264 263 263 263 265 265 265 264 262 260 260 261 260 260 260 261 260 260 258 256 255 254 252 251 250 250 250 250 250 250 251
284 284 282 279 277 276 274 272 272 272 270 269 269 267 266 265 266 267 267 266 266 265 263 261 260 260 261 261 260 260 260 259 258 256 254 252 252 251 250 250 250 250 251 251
284 284 281 278 276 275 274 273 273 273 272 270 270 270 269 269 269 269 269 268 267 266 263 261 260 260 261 260 261 261 260 259 258 257 256 254 253 252 251 251 251 252 252 251
285 283 280 278 276 275 276 275 274 275 274 273 272 272 271 272 272 272 271 269 268 268 265 262 261 261 260 260 261 260 260 260 259 258 257 255 254 252 251 251 251 252 253 253
285 283 280 279 278 277 277 276 275 276 276 275 275 275 274 275 276 274 272 270 270 269 268 265 262 261 261 261 261 259 259 261 260 258 256 255 254 252 251 251 252 252 252 253
285 282 281 280 278 277 277 278 277 277 278 279 279 277 277 277 278 277 274 272 270 270 269 266 264 263 262 262 262 261 260 260 260 259 257 256 255 253 252 252 252 252 252 252
287 283 282 281 280 278 278 277 278 279 280 281 279 278 278 278 279 279 276 273 272 271 270 267 265 264 263 262 262 261 261 261 261 260 258 257 256 254 253 253 253 253 253 253
288 284 283 281 281 280 279 279 280 280 281 281 281 280 280 279 279 278 276 275 274 273 272 269 266 265 265 264 263 262 262 262 261 260 259 258 258 257 255 254 253 253 254 254
288 285 283 282 280 281 281 280 279 280 281 282 283 282 282 282 280 279 279 279 277 275 275 272 268 267 267 266 265 264 263 263 262 262 261 259 259 258 256 255 255 254 255 254
288 286 285 281 280 282 282 281 280 280 281 280 281 283 283 283 283 282 282 281 279 278 276 274 271 270 269 267 267 265 264 264 263 263 263 262 261 259 256 255 255 255 254 254
290 287 287 285 282 282 280 280 279 278 280 278 279 282 282 282 283 282 281 280 281 278 278 276 273 272 271 269 268 267 266 265 264 263 263 262 261 260 257 256 256 256 255 255
291 289 288 287 284 281 281 280 280 278 278 279 279 280 282 281 281 281 281 280 281 279 279 278 275 273 272 270 268 268 266 265 265 264 264 263 261 259 257 256 255 256 256 256
291 288 286 286 286 284 282 281 280 279 279 280 280 280 280 281 280 279 280 280 279 280 280 279 278 275 273 271 270 269 267 266 265 265 264 263 261 259 257 257 256 257 258 257
292 289 287 286 285 284 284 282 280 279 280 281 283 282 282 282 281 281 281 280 279 279 280 280 279 277 274 273 271 269 268 266 265 264 264 263 262 260 258 258 258 259 259 259
293 290 288 286 284 285 283 282 281 280 281 282 283 283 283 282 282 282 283 282 280 280 281 280 279 278 276 273 272 270 269 267 265 264 264 264 264 261 260 259 260 259 260 260
294 291 289 287 285 285 284 285 284 282 281 283 282 283 283 281 281 281 282 282 281 281 281 281 281 279 278 276 274 272 270 268 266 265 265 265 265 263 262 261 260 260 261 261
295 292 290 289 288 286 289 287 286 285 284 284 283 283 282 281 280 281 282 283 283 282 282 282 281 281 279 278 275 273 271 269 268 267 267 267 266 264 263 262 261 260 260 261
295 293 290 289 289 288 288 290 290 288 286 285 284 284 283 282 281 282 283 283 284 284 283 283 282 281 281 279 277 274 272 270 270 270 269 267 266 265 264 263 263 262 262 262
294 293 291 289 288 288 290 289 289 289 286 286 285 284 284 284 283 284 285 284 284 284 284 284 284 283 282 281 278 276 273 272 272 270 269 268 266 265 264 264 263 263 262 263
295 293 291 289 288 288 289 290 290 288 289 288 286 285 285 285 286 286 286 286 285 285 286 285 285 284 283 281 279 277 275 274 272 271 270 269 267 266 265 265 264 263 263 263
297 294 292 291 288 289 289 289 289 289 289 289 288 286 285 285 285 285 286 286 286 286 286 286 284 283 283 281 280 278 277 275 273 271 270 270 269 269 268 267 266 265 264 263
295 294 291 290 289 289 289 289 289 289 289 289 288 287 286 286 286 285 285 285 286 286 286 286 285 284 282 281 280 280 278 276 275 273 272 271 271 270 269 268 267 266 265 264
295 294 292 291 291 289 289 289 289 289 289 290 288 286 286 286 286 286 286 286 286 286 285 285 285 284 282 281 281 280 279 278 276 276 274 273 272 270 269 269 269 267 266 266
296 294 292 291 291 289 288 288 289 289 289 289 288 287 286 287 287 287 287 287 286 286 286 286 286 284 283 282 281 280 279 278 277 277 276 275 274 272 271 271 270 269 268 268
296 294 293 293 292 290 289 289 289 288 289 289 289 289 289 288 288 288 287 287 287 287 287 287 286 285 284 283 282 282 281 280 278 277 277 277 277 275 274 272 272 272 271 269
Height
5688 5687 5685 5684 5682 5681 5680 5679 5679 5680 5679 5679 5680 5681 5681 5682 5682 5682 5682 5682 5682 5682 5683 5683 5684 5684 5685 5686 5686 5686 5687 5689 5690 5691 5693 5695 5696 5698 5700 5702 5704 5706 5709 5711
5681 5679 5679 5676 5674 5673 5672 5671 5671 5671 5670 5669 5670 5671 5671 5672 5672 5672 5671 5671 5671 5671 5671 5671 5672 5672 5673 5674 5674 5674 5674 5676 5678 5679 5680 5682 5684 5686 5688 5690 5692 5694 5697 5699
5672 5673 5670 5668 5666 5665 5663 5663 5663 5662 5661 5660 5660 5661 5662 5661 5661 5661 5661 5660 5660 5659 5659 5659 5660 5660 5661 5662 5662 5662 5663 5663 5665 5667 5668 5670 5672 5674 5676 5679 5681 5683 5685 5687
5664 5664 5661 5659 5658 5657 5656 5656 5654 5653 5652 5651 5650 5649 5652 5651 5651 5650 5650 5649 5648 5648 5647 5647 5648 5648 5648 5649 5650 5650 5651 5651 5652 5654 5656 5658 5660 5662 5665 5667 5669 5671 5673 5675
5656 5655 5653 5651 5651 5649 5648 5647 5646 5644 5642 5641 5641 5639 5642 5641 5640 5640 5639 5638 5637 5636 5636 5635 5636 5636 5636 5637 5638 5638 5639 5639 5640 5641 5643 5645 5647 5649 5652 5654 5656 5658 5660 5662
5648 5647 5645 5644 5643 5641 5640 5639 5637 5635 5633 5632 5632 5629 5630 5630 5630 5629 5628 5627 5626 5625 5624 5624 5624 5624 5624 5625 5626 5626 5627 5627 5628 5629 5630 5632 5634 5636 5639 5641 5643 5646 5648 5650
5640 5638 5636 5635 5634 5633 5631 5630 5627 5625 5623 5622 5622 5619 5620 5621 5619 5618 5617 5615 5614 5613 5613 5612 5612 5612 5613 5613 5614 5614 5615 5616 5616 5617 5618 5619 5621 5623 5626 5628 5630 5633 5635 5637
5631 5630 5629 5627 5625 5624 5622 5621 5619 5616 5614 5613 5611 5609 5611 5610 5608 5607 5606 5605 5603 5602 5601 5601 5601 5601 5601 5601 5601 5602 5603 5603 5604 5605 5606 5606 5608 5610 5613 5615 5617 5619 5622 5624
5622 5622 5621 5619 5617 5616 5613 5611 5610 5608 5604 5603 5601 5600 5600 5599 5598 5597 5595 5594 5592 5591 5590 5589 5589 5589 5589 5589 5589 5590 5590 5591 5591 5592 5593 5594 5595 5597 5599 5601 5603 5605 5608 5610
5614 5613 5613 5610 5609 5606 5605 5603 5601 5598 5595 5592 5591 5590 5591 5590 5588 5587 5586 5584 5582 5580 5579 5578 5577 5577 5577 5577 5577 5577 5578 5578 5579 5579 5580 5581 5582 5584 5585 5587 5589 5591 5593 5595
5606 5605 5604 5602 5599 5597 5596 5594 5591 5589 5586 5583 5581 5584 5582 5580 5579 5577 5576 5573 5572 5570 5569 5567 5566 5565 5565 5565 5565 5565 5565 5565 5566 5566 5567 5568 5569 5570 5571 5573 5575 5577 5579 5581
5597 5595 5594 5593 5591 5588 5586 5584 5582 5580 5577 5574 5571 5575 5572 5571 5568 5567 5566 5563 5561 5560 5558 5556 5555 5554 5553 5553 5552 5552 5552 5552 5553 5553 5554 5554 5555 5556 5557 5559 5561 5563 5565 5566
5589 5586 5584 5583 5583 5580 5577 5575 5573 5570 5568 5565 5562 5566 5562 5560 5558 5557 5555 5553 5551 5549 5547 5545 5544 5542 5541 5540 5540 5540 5540 5540 5540 5540 5540 5541 5541 5542 5543 5545 5546 5548 5550 5551
5580 5577 5576 5574 5572 5569 5568 5566 5564 5561 5558 5555 5554 5554 5553 5550 5548 5547 5545 5542 5540 5538 5536 5534 5533 5531 5529 5528 5527 5527 5527 5527 5526 5526 5527 5527 5527 5528 5529 5530 5532 5533 5534 5536
5570 5568 5566 5565 5562 5560 5558 5557 5554 5551 5548 5546 5545 5544 5543 5541 5538 5536 5534 5531 5529 5527 5525 5523 5521 5519 5517 5516 5515 5514 5514 5513 5513 5513 5514 5514 5514 5515 5515 5516 5517 5518 5519 5520
5561 5559 5557 5555 5553 5550 5548 5547 5544 5542 5539 5537 5535 5534 5533 5530 5528 5525 5523 5521 5519 5517 5514 5512 5510 5508 5506 5504 5503 5502 5501 5500 5500 5500 5501 5501 5501 5501 5501 5502 5502 5503 5504 5505
5553 5550 5547 5546 5544 5540 5538 5538 5535 5532 5530 5527 5525 5525 5522 5520 5517 5515 5513 5511 5508 5506 5504 5501 5499 5496 5494 5493 5491 5490 5488 5488 5487 5487 5487 5487 5487 5487 5487 5488 5488 5489 5489 5490
5544 5541 5537 5535 5533 5530 5532 5528 5525 5522 5520 5517 5515 5513 5511 5509 5507 5504 5502 5500 5498 5495 5493 5491 5488 5486 5483 5481 5479 5477 5476 5475 5475 5474 5474 5474 5473 5473 5473 5474 5474 5474 5475 5475
5535 5532 5528 5525 5521 5520 5521 5518 5515 5512 5510 5508 5505 5503 5501 5498 5496 5494 5492 5489 5487 5485 5482 5480 5477 5474 5472 5469 5467 5466 5465 5463 5463 5462 5461 5461 5460 5460 5460 5460 5460 5460 5460 5461
5526 5523 5519 5515 5511 5509 5512 5508 5504 5502 5499 5498 5495 5493 5490 5488 5486 5485 5481 5478 5476 5473 5471 5468 5466 5463 5461 5458 5456 5454 5453 5451 5450 5449 5448 5448 5447 5447 5446 5446 5446 5446 5446 5446
5517 5513 5510 5506 5501 5500 5500 5497 5494 5492 5491 5488 5485 5482 5480 5477 5476 5473 5470 5468 5465 5463 5460 5457 5455 5452 5449 5447 5445 5443 5441 5439 5438 5437 5436 5435 5434 5433 5433 5432 5432 5432 5432 5432
5507 5503 5500 5496 5492 5493 5489 5486 5484 5482 5479 5477 5474 5472 5469 5467 5464 5462 5459 5457 5454 5452 5449 5446 5443 5441 5438 5435 5433 5431 5429 5427 5425 5424 5423 5422 5421 5420 5419 5419 5418 5418 5417 5417
5497 5494 5490 5487 5486 5482 5478 5475 5473 5471 5469 5466 5463 5461 5458 5456 5453 5451 5448 5446 5443 5440 5437 5434 5432 5429 5426 5423 5421 5419 5417 5414 5413 5411 5410 5409 5407 5406 5405 5405 5404 5403 5403 5403
5487 5483 5480 5476 5475 5472 5468 5465 5463 5460 5458 5455 5452 5450 5447 5445 5442 5440 5437 5434 5431 5428 5426 5423 5420 5417 5414 5411 5409 5406 5404 5402 5400 5399 5397 5395 5394 5393 5391 5390 5389 5389 5388 5388
5477 5473 5469 5467 5465 5461 5458 5455 5453 5450 5447 5444 5442 5439 5436 5434 5431 5428 5425 5423 5420 5417 5414 5411 5408 5405 5402 5399 5397 5394 5392 5390 5388 5386 5385 5383 5381 5379 5378 5376 5375 5374 5373 5372
5468 5464 5460 5458 5455 5452 5449 5446 5443 5440 5437 5434 5431 5429 5426 5423 5420 5417 5414 5411 5408 5405 5402 5399 5396 5393 5390 5388 5385 5382 5380 5378 5376 5374 5372 5370 5368 5366 5364 5363 5361 5359 5358 5357